Dewpoint
61 61 61 61 61 61 61 61 61 61 62 62 62 62 62 61 61 61 61 61 61 61 61 61 61 61 61 61 61 62 62 63 63 62 62 63 63 63 63 63 63 63 63 63 63 62 62 62 62 62 62 62 62 61 61 61 61 61 61 61 61 61 61 61 61 61 61 61 61
61 61 61 60 60 60 61 61 61 61 61 62 62 62 62 62 61 61 61 61 61 61 61 61 60 60 60 60 60 61 61 61 62 62 63 63 63 63 63 63 63 63 63 63 62 62 62 62 62 62 62 62 62 61 61 61 61 61 61 61 61 61 61 61 61 61 61 61 61
60 61 61 61 61 61 60 60 60 60 60 61 61 61 61 61 61 61 61 61 61 61 61 61 61 60 60 60 60 60 60 61 61 62 63 63 63 63 63 63 62 62 62 62 62 62 62 62 62 62 62 62 62 61 61 61 61 61 61 61 61 61 61 61 61 61 61 61 61
59 60 61 61 61 60 60 60 59 59 59 60 60 60 61 61 61 61 61 60 60 61 61 61 61 60 60 60 60 60 60 60 61 61 62 63 63 63 63 63 63 63 62 62 62 62 62 62 62 62 62 62 62 61 61 61 61 61 61 61 61 61 61 61 61 61 61 61 61
59 60 60 61 61 60 60 60 60 59 59 59 59 60 60 61 61 61 61 61 61 61 60 60 61 60 60 60 60 60 60 60 60 60 61 61 62 63 63 63 63 63 63 63 63 62 62 62 62 62 62 62 62 61 61 61 61 61 61 61 61 61 61 61 61 61 61 61 61
59 60 60 60 61 61 61 61 61 61 61 61 60 60 60 61 61 61 61 61 61 60 60 60 60 60 60 60 60 60 60 59 59 60 60 61 61 62 62 63 63 63 63 63 63 63 63 62 62 62 62 62 62 62 61 61 61 61 61 61 61 61 61 61 61 61 61 61 61
59 59 60 60 60 60 60 60 60 60 61 61 61 61 61 61 61 61 61 60 60 60 60 60 60 60 60 60 60 60 60 60 60 60 60 60 61 61 62 62 62 63 63 63 63 63 63 62 62 62 61 61 62 62 62 62 61 61 61 61 61 61 61 61 61 61 61 60 60
58 58 59 59 60 60 60 60 60 60 60 60 60 60 60 60 60 60 60 60 59 59 60 60 60 60 60 60 60 60 59 59 59 59 59 59 59 59 60 60 61 61 61 62 62 62 62 62 62 61 61 61 61 61 61 61 61 61 61 61 61 61 61 61 61 61 60 60 60
57 57 58 58 59 59 60 60 60 59 59 59 59 59 59 59 60 60 60 60 59 59 59 60 60 60 60 59 59 59 59 59 59 58 58 58 58 58 59 59 59 59 59 60 60 60 60 61 61 61 60 60 60 60 60 61 61 61 60 60 60 60 60 60 60 60 60 60 59
57 57 57 58 58 59 59 59 59 59 59 59 59 59 59 59 59 59 60 60 59 59 59 59 59 59 59 59 59 59 59 59 59 58 58 58 58 58 58 58 58 58 59 59 59 59 59 60 60 59 59 59 59 59 59 60 60 60 60 60 60 59 59 59 60 59 59 59 59
56 57 57 58 58 58 58 59 59 59 59 59 59 59 59 59 59 59 60 60 60 60 59 59 59 58 58 58 58 58 58 58 58 58 58 58 58 58 58 58 58 58 58 58 59 59 59 59 59 59 59 59 59 59 59 59 59 59 59 59 59 59 58 59 59 59 59 59 59
54 55 56 57 57 57 58 58 58 58 58 58 59 59 59 59 59 59 59 59 59 59 59 59 59 58 58 58 58 58 58 58 58 58 58 58 58 58 58 58 58 58 58 58 58 59 59 59 59 58 58 58 58 58 58 58 58 58 58 58 58 58 57 57 57 58 58 58 58
51 53 54 54 55 56 57 57 58 58 58 58 58 58 59 59 59 59 59 59 59 59 59 59 58 58 58 58 58 58 58 59 58 58 58 58 58 57 57 57 57 57 58 58 58 59 59 59 58 58 58 58 58 58 58 58 58 58 58 58 57 57 56 56 56 57 57 57 57
48 50 51 53 54 54 55 56 57 58 58 58 58 58 58 58 58 58 58 58 58 58 58 58 58 58 58 58 58 59 59 59 59 58 58 58 58 57 57 58 57 58 58 58 59 59 59 59 59 58 58 58 58 58 58 57 57 57 57 57 57 56 56 56 56 56 56 56 56
46 47 48 50 51 52 52 53 55 56 57 58 58 58 59 59 58 58 58 58 58 58 58 58 58 58 58 58 58 59 59 59 59 59 58 58 58 58 58 58 58 58 58 59 59 59 59 59 59 58 58 58 58 58 58 58 57 57 57 57 57 56 56 56 55 55 56 56 56
45 45 46 48 48 48 48 49 52 54 55 57 58 58 59 59 59 59 59 59 58 58 58 59 58 58 58 58 58 58 59 59 59 59 58 58 58 58 58 59 59 59 59 59 59 59 59 59 59 59 58 58 58 58 58 58 57 57 57 57 57 56 56 56 55 55 55 56 56
44 44 45 45 45 46 46 47 48 50 52 54 55 57 59 59 59 59 59 59 59 59 59 59 59 59 59 58 58 58 58 59 59 58 58 58 58 58 58 58 58 59 59 59 59 59 59 59 59 59 59 58 58 58 58 58 57 57 57 57 57 57 56 56 55 55 55 55 56
43 44 44 45 45 45 46 46 47 47 48 50 52 54 57 58 59 59 59 59 59 59 59 59 59 59 59 58 58 58 58 58 58 58 58 58 58 58 58 58 58 58 58 58 58 58 58 58 59 59 59 59 58 58 58 58 58 57 57 57 57 57 56 56 55 55 55 55 55
43 43 44 44 45 45 45 46 47 47 47 48 49 50 52 54 56 58 58 58 58 58 58 58 59 59 59 59 58 58 58 58 58 58 58 58 58 58 58 58 58 58 58 58 58 58 58 58 58 58 58 59 58 58 58 58 58 57 57 57 57 57 56 56 55 55 55 55 55
43 43 43 44 44 45 45 46 46 47 47 48 48 48 49 51 53 55 56 57 57 57 58 58 58 58 58 58 58 58 58 58 58 58 58 58 57 57 57 57 57 57 57 58 58 58 58 58 58 58 58 58 58 58 58 57 57 57 57 57 56 56 56 56 55 55 55 55 55
43 43 43 43 44 44 45 45 46 47 47 48 48 48 49 50 50 52 53 54 55 55 56 56 57 57 57 58 58 58 58 58 58 58 58 57 57 57 57 57 57 57 57 57 57 57 57 57 57 58 58 58 58 58 57 57 57 56 56 56 56 56 56 55 55 55 55 55 55
44 43 43 43 43 44 44 45 45 46 47 47 48 48 48 48 49 50 51 52 52 53 54 54 55 56 56 57 57 57 57 57 57 57 57 57 57 57 57 57 56 56 56 56 57 57 57 56 57 57 57 57 57 57 57 57 56 56 56 55 55 55 55 55 55 55 54 54 54
44 43 43 43 43 44 44 44 45 45 46 46 47 47 47 48 48 48 49 50 50 51 52 52 53 54 54 55 55 56 56 57 57 57 57 57 57 57 57 57 56 56 56 56 56 56 56 56 56 56 57 57 57 57 56 56 56 55 55 54 54 54 54 54 54 54 54 54 54
44 44 43 43 43 43 44 44 44 44 45 45 46 46 47 47 47 47 48 48 49 49 50 50 51 52 52 53 53 54 54 55 56 56 57 57 57 57 57 57 57 57 57 57 56 56 56 56 56 56 56 56 56 56 56 56 56 55 55 54 54 53 53 53 53 54 54 54 54
43 43 43 43 43 43 43 43 43 44 44 45 45 45 46 46 46 46 47 47 47 48 49 49 50 50 51 51 51 52 53 54 54 55 56 56 57 57 57 57 57 57 57 56 55 54 54 55 56 56 56 56 56 56 56 55 55 55 54 54 53 53 52 52 52 52 52 53 53
42 42 42 42 42 43 43 43 43 43 44 44 45 45 45 45 45 45 46 46 47 47 48 48 49 49 50 50 50 50 51 51 53 54 54 55 56 56 57 57 57 57 56 55 54 54 54 55 55 55 56 56 56 55 55 55 54 54 54 54 53 53 52 51 51 51 51 51 51
41 41 41 41 41 41 41 42 42 43 43 43 43 44 44 45 45 45 45 45 45 46 47 47 48 48 49 49 49 49 50 50 51 52 53 54 54 55 56 56 57 57 56 54 54 54 54 54 54 54 55 55 55 55 55 55 54 54 54 53 53 52 52 51 50 50 50 50 49
40 40 40 40 40 40 41 41 41 41 42 42 43 43 43 44 44 44 44 44 45 45 46 46 47 47 48 48 48 49 49 49 50 50 51 52 53 54 55 56 56 56 55 54 54 54 54 54 54 54 54 54 55 54 54 54 54 54 53 53 53 52 51 51 50 50 49 49 48
39 39 39 39 39 39 39 39 40 41 41 42 42 43 43 43 43 43 43 44 44 45 45 46 47 47 47 47 47 47 47 47 48 49 50 50 50 51 53 54 55 55 54 53 53 53 53 54 54 54 54 54 54 54 54 54 54 53 52 52 52 51 51 50 50 49 48 48 46
39 39 39 39 39 39 38 38 38 39 40 41 41 42 42 42 42 43 43 44 44 45 45 46 47 47 47 47 46 46 46 46 47 47 48 48 49 50 51 52 54 54 54 53 53 53 53 53 53 53 53 53 53 54 54 53 53 52 51 51 51 50 50 50 49 49 48 47 46
38 38 38 38 38 38 38 38 38 38 38 39 40 41 41 41 42 43 43 44 45 45 45 46 46 46 46 45 46 46 46 46 46 46 47 47 48 49 50 50 51 52 52 52 53 53 52 52 52 52 52 52 53 53 53 53 52 51 51 50 50 50 49 49 48 48 48 47 46
38 37 37 37 37 37 38 38 38 38 38 38 39 39 40 41 41 42 43 44 45 45 45 45 46 46 46 45 45 45 46 46 46 46 46 47 47 48 48 49 50 50 50 51 51 52 52 52 52 52 52 52 52 53 52 51 50 50 50 49 49 48 48 49 48 48 47 46 46
36 36 36 36 36 37 37 37 37 37 38 38 38 38 39 41 41 42 43 43 44 44 45 45 45 45 45 45 45 45 45 46 46 46 46 46 47 47 48 48 49 49 50 50 51 51 51 51 51 51 51 51 52 52 50 50 49 49 48 48 47 47 47 47 47 47 47 46 45
35 35 35 36 36 36 36 36 36 37 37 37 38 38 39 40 41 42 42 43 43 44 44 45 45 45 45 45 45 45 45 46 46 46 46 46 47 47 47 48 48 48 49 50 50 50 50 50 50 51 51 51 51 50 49 48 48 47 47 46 45 45 45 45 46 46 46 46 45
34 34 34 35 35 35 35 36 36 36 37 37 37 38 39 40 41 41 42 42 43 43 44 44 44 44 45 45 45 45 45 45 45 45 46 46 46 47 47 47 47 48 48 49 50 50 50 50 50 50 50 51 49 48 47 47 47 46 46 45 45 45 45 45 45 45 45 45 45
34 34 34 34 34 34 35 35 35 36 36 36 37 37 38 39 40 41 42 42 43 43 43 43 43 44 44 44 44 44 44 45 45 45 45 46 46 46 46 47 47 47 48 48 49 49 50 50 50 50 50 50 48 46 46 47 46 46 45 45 45 44 44 44 45 45 45 45 45
33 33 33 33 33 33 34 34 34 35 35 35 36 37 38 39 39 41 41 42 43 43 43 43 43 43 43 43 43 43 43 44 44 44 45 45 45 46 46 46 46 46 47 48 48 49 49 49 49 50 50 49 47 46 46 46 46 45 45 45 44 44 44 44 44 44 44 44 44
33 33 33 33 33 33 33 33 34 34 34 35 36 36 37 38 39 40 41 42 42 43 43 43 42 42 42 42 42 42 42 42 43 44 44 45 45 45 45 45 45 45 46 47 48 48 49 49 49 49 49 48 47 46 46 46 45 45 44 44 43 43 43 43 43 43 43 42 43
33 33 33 33 32 33 33 33 33 34 34 34 35 36 36 37 38 39 40 41 42 43 43 43 42 42 42 42 42 42 41 41 42 42 43 44 44 45 45 45 45 45 45 46 47 48 48 49 49 49 49 48 47 46 46 45 45 44 44 43 43 42 42 42 42 42 41 41 42
32 32 32 32 32 32 32 33 33 33 33 34 34 34 35 36 37 38 40 41 42 42 42 43 42 42 42 42 42 42 42 41 41 41 42 43 43 44 44 45 45 45 45 45 46 47 48 49 49 49 49 48 46 46 45 45 44 43 43 43 42 42 41 41 41 41 41 40 42
32 32 32 32 32 32 32 32 32 32 33 33 33 34 35 36 36 37 38 40 40 41 41 42 42 42 42 42 42 42 42 42 42 41 41 42 43 43 44 44 45 45 45 45 46 47 48 48 49 49 49 47 46 45 45 45 44 43 42 42 42 41 41 41 41 41 40 39 40